Total_Precipitation_Accumulation
0.01 0.01 0.01 0.01 0.02 0.00 0.00 0.01 0.01 0.01 0.01 0.01 0.02 0.03 0.04 0.07 0.04 0.02 0.00 0.00 0.00 0.00 0.00 0.00 0.01 0.01 0.02 0.01 0.04 0.03 0.01 0.01 0.00 0.01 0.00 0.00 0.00 0.00 0.00 0.00 0.00 0.00 0.00 0.00 0.00 0.00 0.00 0.00 0.00 0.00 0.00 0.00 0.00 0.00 0.00 0.00 0.00 0.00 0.00 0.00 0.00 0.00 0.00 0.00 0.00 0.00 0.00 0.00 0.00 0.00 0.00 0.00 0.00 0.00
0.01 0.00 0.00 0.01 0.01 0.00 0.00 0.01 0.01 0.01 0.01 0.02 0.02 0.02 0.02 0.03 0.09 0.04 0.01 0.00 0.00 0.00 0.00 0.00 0.01 0.03 0.04 0.03 0.03 0.02 0.01 0.01 0.00 0.00 0.00 0.00 0.00 0.00 0.00 0.00 0.00 0.00 0.00 0.00 0.00 0.00 0.00 0.00 0.00 0.00 0.00 0.00 0.00 0.00 0.00 0.00 0.00 0.00 0.00 0.00 0.00 0.00 0.00 0.00 0.00 0.00 0.00 0.00 0.00 0.00 0.00 0.00 0.00 0.00
0.00 0.00 0.00 0.00 0.00 0.00 0.01 0.01 0.01 0.01 0.01 0.01 0.02 0.03 0.02 0.03 0.03 0.06 0.08 0.01 0.02 0.00 0.01 0.00 0.02 0.04 0.02 0.01 0.03 0.03 0.01 0.00 0.00 0.00 0.00 0.00 0.00 0.00 0.00 0.00 0.00 0.00 0.00 0.00 0.00 0.00 0.00 0.00 0.00 0.00 0.00 0.00 0.00 0.00 0.00 0.00 0.00 0.00 0.00 0.00 0.00 0.00 0.00 0.00 0.00 0.00 0.00 0.00 0.00 0.00 0.00 0.00 0.00 0.00
0.00 0.00 0.00 0.00 0.00 0.01 0.01 0.01 0.02 0.01 0.01 0.01 0.03 0.01 0.01 0.02 0.01 0.03 0.05 0.05 0.00 0.01 0.01 0.01 0.01 0.00 0.02 0.02 0.00 0.00 0.01 0.01 0.00 0.00 0.00 0.00 0.00 0.00 0.00 0.00 0.00 0.00 0.00 0.00 0.00 0.00 0.00 0.00 0.00 0.00 0.00 0.00 0.00 0.00 0.00 0.00 0.00 0.00 0.00 0.00 0.00 0.00 0.00 0.00 0.00 0.00 0.00 0.00 0.00 0.00 0.00 0.00 0.00 0.00
0.00 0.00 0.00 0.00 0.00 0.01 0.01 0.02 0.01 0.02 0.01 0.01 0.02 0.01 0.01 0.03 0.03 0.02 0.02 0.07 0.02 0.00 0.00 0.01 0.01 0.01 0.01 0.01 0.00 0.01 0.01 0.01 0.02 0.00 0.00 0.00 0.00 0.00 0.00 0.00 0.00 0.00 0.00 0.00 0.00 0.00 0.00 0.00 0.00 0.00 0.00 0.00 0.00 0.00 0.00 0.00 0.00 0.00 0.00 0.00 0.00 0.00 0.00 0.00 0.00 0.00 0.00 0.00 0.00 0.00 0.00 0.00 0.00 0.00
0.00 0.00 0.00 0.00 0.00 0.01 0.02 0.01 0.02 0.03 0.01 0.02 0.02 0.01 0.01 0.02 0.02 0.01 0.04 0.02 0.04 0.01 0.00 0.00 0.02 0.02 0.02 0.02 0.01 0.02 0.02 0.01 0.01 0.01 0.00 0.02 0.01 0.01 0.00 0.00 0.06 0.00 0.00 0.00 0.00 0.00 0.00 0.00 0.00 0.00 0.00 0.00 0.00 0.00 0.00 0.00 0.00 0.00 0.00 0.00 0.00 0.00 0.00 0.00 0.00 0.00 0.00 0.00 0.00 0.00 0.00 0.00 0.00 0.00
0.00 0.00 0.00 0.00 0.00 0.00 0.02 0.00 0.01 0.00 0.00 0.01 0.01 0.01 0.02 0.02 0.02 0.04 0.03 0.05 0.06 0.05 0.02 0.00 0.00 0.01 0.02 0.01 0.03 0.01 0.01 0.01 0.01 0.02 0.02 0.01 0.01 0.00 0.00 0.00 0.01 0.00 0.00 0.00 0.00 0.00 0.00 0.00 0.00 0.00 0.00 0.00 0.00 0.00 0.00 0.00 0.00 0.00 0.00 0.00 0.00 0.00 0.00 0.00 0.00 0.00 0.00 0.00 0.00 0.00 0.00 0.00 0.00 0.00
0.00 0.00 0.00 0.00 0.00 0.00 0.00 0.00 0.00 0.01 0.02 0.03 0.01 0.01 0.02 0.02 0.01 0.02 0.03 0.03 0.02 0.06 0.09 0.02 0.02 0.00 0.01 0.01 0.01 0.01 0.01 0.01 0.01 0.02 0.01 0.00 0.00 0.00 0.01 0.01 0.02 0.01 0.00 0.00 0.00 0.00 0.00 0.00 0.00 0.00 0.00 0.00 0.00 0.00 0.00 0.00 0.00 0.00 0.00 0.00 0.00 0.00 0.00 0.00 0.00 0.00 0.00 0.00 0.00 0.00 0.00 0.00 0.00 0.00
0.00 0.00 0.00 0.00 0.00 0.00 0.00 0.01 0.01 0.01 0.02 0.01 0.01 0.01 0.01 0.01 0.04 0.07 0.02 0.02 0.08 0.07 0.13 0.06 0.03 0.02 0.01 0.01 0.01 0.01 0.02 0.02 0.01 0.01 0.01 0.00 0.01 0.00 0.01 0.01 0.01 0.01 0.00 0.00 0.00 0.00 0.00 0.00 0.00 0.00 0.00 0.00 0.00 0.00 0.00 0.00 0.00 0.00 0.00 0.00 0.00 0.00 0.00 0.00 0.00 0.00 0.00 0.00 0.00 0.00 0.00 0.00 0.00 0.00
0.00 0.00 0.00 0.00 0.00 0.00 0.00 0.00 0.00 0.00 0.01 0.01 0.01 0.01 0.01 0.06 0.21 0.11 0.10 0.17 0.29 0.10 0.07 0.18 0.11 0.04 0.04 0.03 0.01 0.01 0.02 0.03 0.03 0.01 0.01 0.01 0.01 0.02 0.01 0.02 0.01 0.01 0.01 0.01 0.01 0.01 0.00 0.00 0.00 0.00 0.00 0.00 0.00 0.00 0.00 0.00 0.00 0.00 0.00 0.00 0.00 0.00 0.00 0.00 0.00 0.00 0.00 0.00 0.00 0.00 0.00 0.00 0.00 0.00
0.00 0.00 0.01 0.00 0.00 0.00 0.00 0.00 0.01 0.02 0.02 0.01 0.02 0.03 0.02 0.03 0.13 0.08 0.04 0.03 0.04 0.15 0.12 0.06 0.10 0.06 0.03 0.02 0.05 0.05 0.01 0.04 0.02 0.03 0.04 0.04 0.02 0.01 0.01 0.01 0.01 0.00 0.01 0.01 0.00 0.00 0.00 0.00 0.00 0.00 0.00 0.00 0.00 0.00 0.00 0.00 0.00 0.00 0.00 0.00 0.00 0.00 0.00 0.00 0.00 0.00 0.00 0.00 0.00 0.00 0.00 0.00 0.00 0.00
0.00 0.00 0.00 0.01 0.00 0.00 0.01 0.01 0.00 0.02 0.01 0.01 0.01 0.01 0.01 0.01 0.02 0.07 0.04 0.03 0.04 0.03 0.03 0.03 0.09 0.05 0.05 0.03 0.02 0.02 0.02 0.05 0.05 0.05 0.07 0.05 0.03 0.01 0.01 0.01 0.01 0.01 0.00 0.00 0.00 0.00 0.00 0.00 0.01 0.00 0.00 0.00 0.00 0.00 0.00 0.00 0.00 0.00 0.00 0.00 0.00 0.00 0.00 0.00 0.00 0.00 0.00 0.00 0.00 0.00 0.00 0.00 0.00 0.00
0.01 0.00 0.01 0.01 0.02 0.02 0.01 0.02 0.02 0.01 0.01 0.01 0.00 0.03 0.01 0.05 0.04 0.02 0.08 0.03 0.02 0.07 0.04 0.03 0.07 0.06 0.05 0.03 0.03 0.04 0.06 0.05 0.07 0.05 0.04 0.04 0.03 0.03 0.03 0.03 0.02 0.01 0.01 0.00 0.00 0.00 0.00 0.01 0.00 0.00 0.00 0.00 0.00 0.00 0.00 0.00 0.00 0.00 0.00 0.00 0.00 0.00 0.00 0.00 0.00 0.00 0.00 0.00 0.00 0.00 0.00 0.00 0.00 0.00
0.00 0.00 0.02 0.19 0.09 0.08 0.06 0.06 0.04 0.02 0.03 0.08 0.10 0.04 0.03 0.02 0.02 0.02 0.02 0.02 0.02 0.03 0.04 0.07 0.06 0.09 0.15 0.04 0.03 0.03 0.03 0.02 0.02 0.04 0.06 0.06 0.06 0.02 0.09 0.01 0.02 0.02 0.02 0.02 0.01 0.01 0.01 0.01 0.01 0.00 0.00 0.00 0.00 0.00 0.00 0.00 0.00 0.00 0.00 0.00 0.00 0.00 0.00 0.00 0.00 0.00 0.00 0.00 0.00 0.00 0.00 0.00 0.00 0.00
0.00 0.00 0.00 0.01 0.02 0.02 0.05 0.09 0.04 0.05 0.05 0.03 0.03 0.03 0.02 0.01 0.01 0.01 0.01 0.02 0.02 0.03 0.03 0.06 0.04 0.04 0.07 0.04 0.02 0.02 0.03 0.03 0.05 0.07 0.05 0.06 0.07 0.08 0.09 0.06 0.01 0.01 0.02 0.03 0.01 0.00 0.00 0.00 0.00 0.00 0.00 0.00 0.00 0.00 0.00 0.00 0.00 0.00 0.00 0.00 0.00 0.00 0.00 0.00 0.00 0.00 0.00 0.00 0.00 0.00 0.00 0.00 0.00 0.00
0.01 0.01 0.04 0.10 0.17 0.16 0.14 0.13 0.08 0.06 0.03 0.02 0.01 0.01 0.01 0.03 0.01 0.00 0.00 0.01 0.02 0.02 0.04 0.04 0.06 0.04 0.05 0.04 0.04 0.05 0.05 0.06 0.06 0.04 0.06 0.04 0.06 0.10 0.11 0.10 0.07 0.05 0.03 0.03 0.01 0.00 0.00 0.00 0.00 0.00 0.00 0.00 0.00 0.00 0.00 0.00 0.00 0.00 0.00 0.00 0.00 0.00 0.00 0.00 0.00 0.00 0.00 0.00 0.00 0.00 0.00 0.00 0.00 0.00
0.01 0.06 0.08 0.14 0.28 0.11 0.05 0.07 0.04 0.02 0.01 0.01 0.01 0.01 0.01 0.00 0.00 0.00 0.00 0.00 0.03 0.08 0.04 0.04 0.03 0.03 0.04 0.13 0.15 0.06 0.07 0.04 0.08 0.07 0.07 0.06 0.08 0.07 0.09 0.09 0.05 0.02 0.01 0.01 0.00 0.00 0.00 0.00 0.00 0.00 0.00 0.00 0.00 0.00 0.00 0.00 0.00 0.00 0.00 0.00 0.00 0.00 0.00 0.00 0.00 0.00 0.00 0.00 0.00 0.00 0.00 0.00 0.00 0.00
0.00 0.02 0.05 0.45 0.49 0.08 0.12 0.04 0.02 0.03 0.02 0.06 0.06 0.04 0.05 0.04 0.02 0.01 0.00 0.00 0.00 0.01 0.02 0.08 0.07 0.03 0.47 0.28 0.11 0.09 0.05 0.08 0.07 0.06 0.08 0.06 0.09 0.07 0.06 0.05 0.01 0.00 0.00 0.01 0.03 0.02 0.00 0.00 0.00 0.00 0.00 0.00 0.00 0.00 0.00 0.00 0.00 0.00 0.00 0.00 0.00 0.00 0.00 0.00 0.00 0.00 0.00 0.00 0.00 0.00 0.00 0.00 0.00 0.00
0.02 0.14 0.47 0.42 0.15 0.03 0.07 0.04 0.01 0.01 0.00 0.00 0.02 0.04 0.03 0.04 0.01 0.03 0.04 0.03 0.14 0.06 0.07 0.06 0.04 0.03 0.02 0.05 0.06 0.04 0.03 0.02 0.02 0.03 0.16 0.07 0.06 0.04 0.01 0.02 0.00 0.00 0.01 0.02 0.03 0.03 0.00 0.00 0.00 0.00 0.00 0.00 0.00 0.00 0.00 0.00 0.00 0.00 0.00 0.00 0.00 0.00 0.00 0.00 0.00 0.00 0.00 0.00 0.00 0.00 0.00 0.00 0.00 0.00
0.07 0.12 0.37 0.07 0.09 0.10 0.09 0.05 0.03 0.12 0.24 0.28 0.26 0.05 0.05 0.02 0.01 0.02 0.01 0.00 0.00 0.01 0.01 0.01 0.01 0.02 0.01 0.00 0.01 0.02 0.02 0.01 0.01 0.05 0.01 0.02 0.03 0.06 0.03 0.03 0.00 0.00 0.00 0.00 0.00 0.00 0.00 0.00 0.01 0.00 0.00 0.00 0.00 0.00 0.00 0.00 0.00 0.00 0.00 0.00 0.00 0.00 0.00 0.00 0.00 0.00 0.00 0.00 0.00 0.00 0.00 0.00 0.00 0.00
0.12 0.24 0.20 0.10 0.16 0.05 0.04 0.07 0.14 0.21 0.12 0.04 0.03 0.02 0.03 0.03 0.04 0.03 0.03 0.03 0.01 0.00 0.00 0.00 0.00 0.00 0.00 0.00 0.00 0.00 0.00 0.20 0.02 0.04 0.07 0.04 0.01 0.03 0.04 0.02 0.01 0.00 0.00 0.00 0.00 0.01 0.03 0.02 0.01 0.01 0.00 0.00 0.00 0.00 0.00 0.00 0.00 0.00 0.00 0.00 0.00 0.00 0.00 0.00 0.00 0.00 0.00 0.00 0.00 0.00 0.00 0.00 0.00 0.00
0.25 0.05 0.05 0.03 0.06 0.18 0.14 0.03 0.12 0.03 0.22 0.26 0.03 0.02 0.02 0.01 0.02 0.01 0.01 0.01 0.02 0.01 0.00 0.00 0.00 0.00 0.00 0.01 0.00 0.00 0.00 0.00 0.01 0.03 0.07 0.01 0.03 0.06 0.04 0.04 0.01 0.00 0.01 0.01 0.00 0.08 0.10 0.02 0.01 0.02 0.00 0.00 0.00 0.00 0.00 0.00 0.00 0.00 0.00 0.00 0.00 0.00 0.00 0.00 0.00 0.00 0.00 0.00 0.00 0.00 0.00 0.00 0.00 0.00
0.07 0.12 0.06 0.14 0.17 0.12 0.06 0.10 0.17 0.06 0.04 0.01 0.01 0.01 0.01 0.01 0.01 0.01 0.01 0.01 0.01 0.01 0.00 0.00 0.00 0.00 0.01 0.05 0.02 0.02 0.00 0.00 0.00 0.01 0.07 0.04 0.05 0.03 0.02 0.01 0.04 0.04 0.04 0.02 0.00 0.11 0.13 0.05 0.02 0.04 0.06 0.07 0.02 0.00 0.00 0.00 0.00 0.01 0.00 0.00 0.00 0.01 0.00 0.00 0.00 0.00 0.00 0.00 0.00 0.00 0.00 0.00 0.00 0.00
0.16 0.05 0.09 0.05 0.02 0.01 0.01 0.00 0.00 0.00 0.03 0.00 0.00 0.01 0.01 0.01 0.03 0.01 0.00 0.00 0.00 0.00 0.00 0.00 0.00 0.00 0.00 0.00 0.01 0.00 0.00 0.00 0.00 0.01 0.03 0.04 0.02 0.04 0.06 0.05 0.05 0.04 0.02 0.01 0.00 0.17 0.18 0.11 0.07 0.01 0.08 0.19 0.15 0.06 0.00 0.00 0.00 0.00 0.01 0.03 0.03 0.02 0.01 0.00 0.00 0.00 0.00 0.00 0.00 0.00 0.01 0.01 0.01 0.02
0.11 0.14 0.07 0.06 0.01 0.00 0.00 0.00 0.01 0.01 0.00 0.00 0.00 0.00 0.01 0.00 0.00 0.00 0.00 0.00 0.00 0.00 0.00 0.00 0.00 0.00 0.00 0.00 0.00 0.00 0.00 0.00 0.00 0.00 0.00 0.00 0.01 0.02 0.01 0.02 0.03 0.04 0.04 0.02 0.03 0.18 0.21 0.09 0.10 0.08 0.09 0.13 0.09 0.06 0.08 0.14 0.03 0.01 0.03 0.05 0.05 0.04 0.03 0.05 0.06 0.04 0.02 0.01 0.01 0.01 0.01 0.02 0.02 0.05
0.02 0.02 0.03 0.02 0.01 0.00 0.00 0.01 0.01 0.01 0.01 0.00 0.00 0.00 0.00 0.00 0.00 0.00 0.00 0.00 0.00 0.00 0.00 0.00 0.00 0.00 0.00 0.00 0.00 0.00 0.00 0.00 0.00 0.00 0.00 0.00 0.00 0.00 0.02 0.03 0.05 0.08 0.07 0.05 0.03 0.10 0.19 0.17 0.09 0.15 0.13 0.18 0.19 0.14 0.15 0.16 0.24 0.11 0.04 0.06 0.09 0.16 0.12 0.11 0.16 0.12 0.09 0.06 0.04 0.03 0.03 0.03 0.02 0.02
0.02 0.01 0.03 0.01 0.00 0.00 0.01 0.01 0.01 0.01 0.01 0.00 0.00 0.00 0.00 0.00 0.00 0.00 0.00 0.00 0.00 0.00 0.00 0.01 0.01 0.00 0.00 0.00 0.00 0.00 0.00 0.00 0.00 0.00 0.00 0.00 0.00 0.00 0.00 0.01 0.02 0.05 0.07 0.07 0.08 0.10 0.17 0.22 0.09 0.16 0.21 0.19 0.37 0.19 0.15 0.09 0.07 0.23 0.56 0.38 0.28 0.18 0.18 0.21 0.15 0.13 0.09 0.08 0.09 0.05 0.03 0.03 0.02 0.05
0.07 0.03 0.01 0.00 0.00 0.01 0.01 0.01 0.01 0.01 0.01 0.01 0.01 0.01 0.00 0.00 0.00 0.00 0.00 0.00 0.00 0.00 0.00 0.00 0.00 0.00 0.00 0.00 0.00 0.00 0.00 0.00 0.00 0.00 0.00 0.00 0.00 0.00 0.00 0.00 0.02 0.04 0.06 0.08 0.09 0.10 0.15 0.21 0.14 0.13 0.24 0.44 0.43 0.35 0.31 0.13 0.17 0.16 0.52 0.45 0.66 0.17 0.14 0.14 0.19 0.15 0.10 0.10 0.10 0.07 0.06 0.04 0.03 0.02
0.00 0.00 0.00 0.01 0.01 0.01 0.01 0.01 0.02 0.02 0.01 0.00 0.01 0.01 0.00 0.00 0.00 0.00 0.00 0.00 0.00 0.00 0.00 0.00 0.00 0.00 0.00 0.00 0.00 0.00 0.00 0.00 0.00 0.00 0.00 0.00 0.00 0.00 0.00 0.00 0.01 0.04 0.09 0.11 0.11 0.11 0.15 0.23 0.23 0.20 0.25 0.21 0.30 0.27 0.33 0.28 0.21 0.31 0.39 0.66 0.67 0.65 0.44 0.22 0.28 0.36 0.21 0.14 0.09 0.11 0.10 0.09 0.04 0.05
0.01 0.00 0.01 0.02 0.03 0.03 0.03 0.01 0.01 0.00 0.00 0.01 0.01 0.00 0.00 0.00 0.03 0.01 0.00 0.00 0.00 0.00 0.00 0.00 0.00 0.00 0.00 0.00 0.00 0.00 0.00 0.00 0.00 0.00 0.00 0.00 0.00 0.00 0.00 0.00 0.01 0.02 0.06 0.09 0.10 0.10 0.12 0.18 0.21 0.22 0.19 0.13 0.10 0.17 0.24 0.40 0.33 0.21 0.29 0.29 0.45 0.48 1.11 1.10 0.63 0.66 0.55 0.34 0.17 0.14 0.11 0.16 0.15 0.04
0.06 0.04 0.02 0.11 0.02 0.01 0.02 0.01 0.01 0.00 0.01 0.03 0.01 0.08 0.05 0.02 0.02 0.05 0.01 0.00 0.00 0.00 0.00 0.00 0.00 0.00 0.00 0.00 0.00 0.00 0.00 0.00 0.00 0.00 0.00 0.00 0.00 0.00 0.00 0.01 0.01 0.01 0.01 0.02 0.04 0.06 0.09 0.13 0.15 0.18 0.46 0.31 0.15 0.14 0.44 0.45 0.42 0.25 0.36 0.34 0.44 0.63 0.44 0.61 0.56 1.06 0.81 0.59 0.40 0.14 0.13 0.08 0.08 0.19
0.12 0.31 0.50 0.22 0.17 0.05 0.03 0.06 0.02 0.03 0.05 0.09 0.04 0.05 0.01 0.03 0.01 0.00 0.01 0.00 0.00 0.00 0.00 0.01 0.00 0.00 0.00 0.00 0.00 0.00 0.00 0.00 0.00 0.00 0.00 0.00 0.00 0.00 0.01 0.01 0.01 0.02 0.02 0.01 0.01 0.01 0.01 0.05 0.09 0.11 0.16 0.29 0.62 0.54 0.56 0.47 0.63 0.42 0.28 0.28 0.36 0.33 0.18 0.32 0.37 0.56 0.70 1.17 0.73 0.40 0.39 0.15 0.08 0.06
0.06 0.08 0.07 0.09 0.08 0.17 0.09 0.12 0.13 0.06 0.01 0.01 0.00 0.00 0.00 0.00 0.01 0.01 0.01 0.01 0.01 0.00 0.00 0.00 0.00 0.00 0.00 0.00 0.00 0.00 0.00 0.00 0.00 0.00 0.00 0.00 0.00 0.00 0.00 0.01 0.01 0.03 0.04 0.03 0.02 0.02 0.01 0.01 0.04 0.09 0.19 0.64 1.08 0.94 1.19 0.72 0.51 0.30 0.37 0.43 0.24 0.22 0.27 0.31 0.41 0.48 0.55 0.87 0.89 0.65 0.42 0.47 0.31 0.20
0.32 0.21 0.21 0.11 0.06 0.05 0.05 0.08 0.03 0.04 0.03 0.05 0.06 0.07 0.03 0.03 0.02 0.03 0.01 0.03 0.01 0.01 0.02 0.00 0.00 0.00 0.00 0.00 0.00 0.00 0.00 0.00 0.00 0.00 0.00 0.00 0.00 0.00 0.00 0.01 0.01 0.01 0.03 0.03 0.03 0.04 0.03 0.02 0.02 0.05 0.12 0.21 0.30 0.46 0.46 0.47 0.50 0.27 0.15 0.25 0.31 0.47 0.24 0.20 0.20 0.16 0.74 0.71 0.56 0.74 0.50 0.38 0.63 0.34
0.15 0.05 0.02 0.03 0.05 0.08 0.03 0.03 0.04 0.06 0.07 0.07 0.12 0.08 0.05 0.05 0.08 0.04 0.03 0.01 0.02 0.01 0.02 0.00 0.00 0.00 0.00 0.00 0.00 0.00 0.00 0.00 0.00 0.00 0.00 0.00 0.00 0.00 0.00 0.01 0.01 0.02 0.03 0.04 0.05 0.04 0.07 0.06 0.10 0.09 0.09 0.17 0.24 0.23 0.25 0.26 0.21 0.43 0.39 1.42 0.35 0.46 0.32 0.43 0.21 0.25 0.40 0.47 0.50 0.69 0.78 0.58 0.33 0.70
0.32 0.11 0.07 0.04 0.08 0.07 0.05 0.06 0.07 0.05 0.12 0.09 0.12 0.09 0.10 0.14 0.04 0.01 0.02 0.01 0.01 0.01 0.00 0.00 0.00 0.00 0.00 0.00 0.00 0.00 0.00 0.00 0.00 0.00 0.00 0.00 0.00 0.00 0.00 0.00 0.01 0.02 0.03 0.05 0.05 0.04 0.08 0.11 0.11 0.19 0.26 0.26 0.26 0.24 0.21 0.16 0.16 0.15 0.24 0.68 0.68 0.71 0.63 0.31 0.27 0.21 0.41 0.77 0.54 0.74 0.41 0.62 0.43 0.34
0.51 0.63 0.29 0.18 0.07 0.06 0.03 0.03 0.02 0.02 0.01 0.03 0.04 0.04 0.05 0.07 0.08 0.06 0.04 0.01 0.01 0.01 0.00 0.00 0.00 0.00 0.00 0.00 0.00 0.00 0.00 0.00 0.00 0.00 0.00 0.00 0.00 0.00 0.00 0.00 0.01 0.02 0.03 0.04 0.04 0.05 0.08 0.13 0.13 0.18 0.22 0.23 0.22 0.23 0.41 0.37 0.34 0.29 0.32 0.48 0.56 0.28 0.43 0.43 0.29 0.31 0.27 0.55 0.66 0.65 0.43 0.41 0.40 0.38
1.71 1.30 0.79 0.47 0.23 0.14 0.03 0.03 0.03 0.03 0.03 0.04 0.04 0.03 0.02 0.02 0.02 0.01 0.00 0.00 0.00 0.00 0.00 0.00 0.00 0.00 0.00 0.00 0.00 0.00 0.00 0.00 0.00 0.00 0.00 0.00 0.00 0.00 0.00 0.00 0.01 0.02 0.03 0.04 0.04 0.05 0.05 0.10 0.13 0.11 0.22 0.37 0.32 0.23 0.19 0.35 0.38 0.39 0.57 0.78 0.95 1.08 0.42 0.34 0.45 0.28 0.29 0.33 0.50 0.68 0.85 0.78 0.55 0.86
1.40 1.18 1.21 0.96 0.78 0.41 0.12 0.09 0.09 0.12 0.13 0.14 0.09 0.07 0.05 0.03 0.02 0.01 0.01 0.00 0.00 0.01 0.00 0.00 0.00 0.00 0.00 0.00 0.00 0.00 0.00 0.00 0.00 0.00 0.00 0.00 0.00 0.00 0.00 0.01 0.01 0.01 0.02 0.03 0.04 0.04 0.04 0.05 0.09 0.12 0.17 0.44 0.37 0.35 0.39 0.41 0.42 0.52 0.69 0.63 0.68 0.90 1.41 1.13 0.47 0.44 0.40 0.33 0.29 0.54 0.66 0.78 0.70 0.59
0.66 0.39 0.30 0.24 0.28 0.28 0.43 0.26 0.24 0.25 0.13 0.10 0.18 0.10 0.10 0.07 0.04 0.04 0.02 0.01 0.00 0.00 0.00 0.00 0.00 0.00 0.00 0.00 0.00 0.00 0.00 0.00 0.00 0.00 0.00 0.00 0.00 0.00 0.00 0.02 0.01 0.01 0.01 0.02 0.03 0.04 0.06 0.06 0.11 0.14 0.25 0.21 0.28 0.38 0.26 0.26 0.34 0.29 0.35 0.40 0.46 0.77 1.06 1.19 1.32 0.85 0.55 0.38 0.28 0.28 0.49 0.52 0.41 0.41
0.45 0.15 0.15 0.20 0.21 0.22 0.40 0.50 0.55 0.30 0.32 0.16 0.16 0.12 0.12 0.09 0.05 0.03 0.04 0.02 0.01 0.00 0.00 0.00 0.00 0.00 0.00 0.00 0.00 0.00 0.00 0.00 0.00 0.00 0.00 0.00 0.00 0.00 0.00 0.01 0.00 0.01 0.01 0.01 0.02 0.03 0.07 0.10 0.10 0.10 0.21 0.38 0.27 0.25 0.17 0.13 0.16 0.25 0.34 0.40 0.37 0.37 0.64 1.07 0.97 0.99 1.15 1.31 0.84 0.27 0.20 0.41 0.47 0.41
0.11 0.11 0.23 0.18 0.34 0.27 0.26 0.14 0.11 0.09 0.09 0.09 0.11 0.13 0.22 0.17 0.05 0.04 0.01 0.00 0.00 0.00 0.00 0.00 0.00 0.00 0.00 0.00 0.00 0.00 0.00 0.00 0.00 0.00 0.00 0.00 0.00 0.00 0.00 0.00 0.00 0.01 0.01 0.01 0.01 0.03 0.06 0.07 0.10 0.12 0.12 0.18 0.31 0.26 0.20 0.29 0.30 0.33 0.35 0.41 0.44 0.42 0.44 0.58 0.72 0.79 0.90 1.31 1.75 0.94 0.54 1.26 0.96 0.59
0.73 0.89 0.74 0.43 0.49 0.40 0.45 0.29 0.19 0.16 0.16 0.08 0.15 0.09 0.08 0.03 0.07 0.03 0.02 0.01 0.01 0.00 0.00 0.00 0.00 0.00 0.00 0.00 0.00 0.00 0.00 0.00 0.00 0.00 0.00 0.00 0.00 0.00 0.00 0.00 0.00 0.01 0.03 0.01 0.01 0.01 0.03 0.06 0.10 0.12 0.14 0.17 0.28 0.27 0.31 0.29 0.31 0.28 0.26 0.32 0.42 0.43 0.44 0.51 0.61 0.76 0.80 0.81 1.12 1.97 1.43 0.97 0.80 1.09
0.91 0.63 0.60 0.72 0.46 0.38 0.30 0.16 0.10 0.07 0.08 0.03 0.02 0.05 0.05 0.02 0.01 0.00 0.00 0.00 0.00 0.00 0.00 0.00 0.00 0.00 0.00 0.00 0.00 0.00 0.00 0.00 0.00 0.00 0.00 0.00 0.00 0.00 0.00 0.00 0.00 0.00 0.01 0.01 0.01 0.01 0.01 0.03 0.06 0.10 0.14 0.16 0.19 0.26 0.31 0.37 0.38 0.42 0.42 0.37 0.35 0.35 0.37 0.43 0.56 0.68 0.66 0.67 0.76 1.03 1.54 1.55 1.27 1.98
0.84 0.62 0.54 0.61 0.41 0.31 0.22 0.14 0.13 0.09 0.06 0.04 0.02 0.02 0.01 0.00 0.00 0.00 0.00 0.00 0.00 0.00 0.00 0.00 0.00 0.00 0.00 0.00 0.00 0.00 0.00 0.00 0.00 0.00 0.00 0.00 0.00 0.00 0.00 0.00 0.00 0.00 0.00 0.00 0.02 0.01 0.01 0.02 0.04 0.11 0.12 0.14 0.16 0.19 0.28 0.32 0.37 0.41 0.44 0.36 0.38 0.38 0.39 0.40 0.40 0.48 0.58 0.61 0.72 0.88 1.07 1.41 1.38 0.90